Content
SEND FEEDBACK

Daily
Averages
Monthly
Summary
United States of America

DEDEDO, GUAM


Home > North America > United States > Guam
Elevation: 364 feet     Latitude: 13 33N     Longitude: 144 49E

WEATHER
 
SELECT A DAY
Number of Records: 209,308;   Date Range: 1/1/95 - 9/18/14
 
SHARE

PRINT THIS DATA

[ ← Previous Day ]
WEATHER ALMANAC - APRIL 21, 2013
[ Next Day → ]
[ °C ]   °F
Weather ElementAverageHighLow
Temperature84.6 °F89.1 °F (11:54 am)81 °F (3:54 am)
Dewpoint72.3 °F73.9 °F (1:54 am)71.1 °F (6:54 am)
Humidity66.8 %77 % (4:54 am)57 % (10:54 am)
Barometer29.88 in29.91 in (7:54 am)29.83 in (1:54 pm)
Wind Speed7.7 mph11.5 mph (7:54 am)
Wind Gust20.7 mph (1:54 pm)
Weather ElementAverage
Visibility10 mi
Wind DirectionESE (96.4 °)

Weather ElementTotal
Precipitation---
Cooling Degree Days20.1 (Base 65)
Growing Degree Days35.1 (Base 50)
Averaged from 25 records on April 21, 2013
WEATHER CONDITIONS BREAKOUT
WIND DIRECTION BREAKOUT
WEATHER BY HOUR - APRIL 21, 2013
[ °C ]   °F
Local TimeTemperatureDewpointHumidityBarometerVisibilityWind DirectionWind SpeedGust SpeedPrecipitationEventsConditions
1:54 AM82.0 °F73.9 °F76 %29.87 in10.0 miEast (80°)8.1 mph0.00 inPartly Cloudy
2:54 AM82.0 °F73.0 °F74 %29.86 in10.0 miEast (80°)9.2 mphClear
3:54 AM81.0 °F72.0 °F74 %29.86 in10.0 miEast (80°)5.8 mphClear
4:54 AM81.0 °F73.0 °F77 %29.86 in10.0 miEast (80°)4.6 mphClear
5:54 AM81.0 °F73.0 °F77 %29.88 in10.0 miEast (100°)4.6 mphPartly Cloudy
6:54 AM82.0 °F71.1 °F69 %29.89 in10.0 miEast (90°)5.8 mphClear
7:54 AM84.9 °F72.0 °F65 %29.91 in10.0 miEast (80°)11.5 mphPartly Cloudy
8:54 AM86.0 °F71.1 °F61 %29.91 in10.0 miEast (90°)11.5 mph16.1 mphPartly Cloudy
9:54 AM87.1 °F71.1 °F59 %29.91 in10.0 miESE (110°)10.4 mph17.3 mphPartly Cloudy
10:54 AM88.0 °F71.1 °F57 %29.90 in10.0 miESE (110°)10.4 mphScattered Clouds
11:54 AM89.1 °F72.0 °F57 %29.89 in10.0 miESE (110°)10.4 mphScattered Clouds
12:54 PM89.1 °F72.0 °F57 %29.87 in10.0 miESE (110°)9.2 mphScattered Clouds
1:54 PM89.1 °F72.0 °F57 %29.83 in10.0 miESE (120°)9.2 mph20.7 mphScattered Clouds
2:54 PM88.0 °F73.0 °F61 %29.83 in10.0 miESE (120°)8.1 mphMostly Cloudy
3:54 PM87.1 °F71.1 °F59 %29.83 in10.0 miESE (120°)9.2 mphPartly Cloudy
4:54 PM87.1 °F73.0 °F63 %29.83 in10.0 miSE (130°)5.8 mphPartly Cloudy
5:54 PM84.9 °F72.0 °F65 %29.84 in10.0 miESE (110°)8.1 mphClear
6:54 PM84.0 °F73.0 °F69 %29.86 in10.0 miEast (90°)4.6 mphPartly Cloudy
7:26 PM84.2 °F73.4 °F70 %29.90 in10.0 miEast (90°)6.9 mphMostly Cloudy
7:37 PM84.2 °F73.4 °F70 %29.90 in10.0 miEast (90°)5.8 mphScattered Clouds
7:54 PM84.0 °F73.0 °F69 %29.88 in10.0 miEast (80°)5.8 mphPartly Cloudy
8:54 PM82.9 °F73.0 °F72 %29.89 in10.0 miEast (80°)5.8 mphPartly Cloudy
9:54 PM82.9 °F72.0 °F69 %29.91 in10.0 miEast (90°)8.1 mphScattered Clouds
10:54 PM82.0 °F73.0 °F74 %29.91 in10.0 miEast (90°)6.9 mphClear
11:54 PM82.0 °F71.1 °F69 %29.90 in10.0 miEast (80°)6.9 mphPartly Cloudy
Hourly data recorded from PGUM, located miles away from Dededo, Guam







STORIES FROM OUR PARTNERS